Sussex, Wisconsin, United States (53089)
Lat: 43.13N, Lon: 88.22W
Wx Zone: WIZ065
Local Info
Past Weather Observations for Today

NOTE: This archive is for the closest National Weather Service station to Sussex. Information may differ from the station used for current weather conditions.

Click here for Long-term Archive

Time Weather Temperature Dewpoint Humidity Pressure Winds Precip Visibility
21:35
Clear
37°F / 3°C 36°F / 2°C 93% 30.27 in
(1025 mb)
S 4.6 mph
(S 7 kph)
- 10SM
21:15
Clear
36°F / 2°C 34°F / 1°C 93% 30.27 in
(1025 mb)
SSE 4.6 mph
(SSE 7 kph)
- 10SM
20:55
Clear
36°F / 2°C 34°F / 1°C 93% 30.27 in
(1025 mb)
SSE 5.8 mph
(SSE 9 kph)
- 10SM
20:35
Clear
37°F / 3°C 36°F / 2°C 93% 30.27 in
(1025 mb)
SSE 4.6 mph
(SSE 7 kph)
- 10SM
20:15
Clear
37°F / 3°C 36°F / 2°C 93% 30.27 in
(1025 mb)
S 3.5 mph
(S 6 kph)
- 10SM
19:45
Clear
39°F / 4°C 36°F / 2°C 87% 30.27 in
(1025 mb)
SE 4.6 mph
(SE 7 kph)
- 10SM
18:45
Clear
43°F / 6°C 37°F / 3°C 81% 30.27 in
(1025 mb)
SE 6.9 mph
(SE 11 kph)
- 10SM
17:45
Clear
45°F / 7°C 37°F / 3°C 76% 30.27 in
(1025 mb)
SE 6.9 mph
(SE 11 kph)
- 10SM
16:45
Clear
46°F / 8°C 37°F / 3°C 71% 30.27 in
(1025 mb)
E 6.9 mph
(E 11 kph)
- 10SM
15:45
Clear
50°F / 10°C 39°F / 4°C 67% 30.27 in
(1025 mb)
E 10.4 mph
(E 17 kph)
- 10SM
14:45
Clear
54°F / 12°C 39°F / 4°C 58% 30.3 in
(1026 mb)
E 97.8 mph
(E 157 kph)
- 10SM
13:45
Clear
54°F / 12°C 39°F / 4°C 58% 30.3 in
(1026 mb)
ESE 4.6 mph
(ESE 7 kph)
- 10SM
12:45
Clear
54°F / 12°C 39°F / 4°C 58% 30.33 in
(1027 mb)
E 4.6 mph
(E 7 kph)
- 10SM
11:45
Partly Cloudy
52°F / 11°C 39°F / 4°C 62% 30.36 in
(1028 mb)
E 6.9 mph
(E 11 kph)
- 10SM
10:45
Mostly Cloudy
48°F / 9°C 39°F / 4°C 71% 30.39 in
(1029 mb)
SE 6.9 mph
(SE 11 kph)
- 10SM
09:45
Mostly Cloudy
48°F / 9°C 43°F / 6°C 82% 30.39 in
(1029 mb)
SE 6.9 mph
(SE 11 kph)
- 10SM
09:00
Mostly Cloudy
45°F / 7°C 41°F / 5°C 87% 30.36 in
(1028 mb)
E 5.8 mph
(E 9 kph)
- 10SM
07:45
Partly Cloudy
41°F / 5°C 37°F / 3°C 87% 30.36 in
(1028 mb)
Calm - 10SM
06:45
Clear
32°F / 0°C 32°F / 0°C 100% 30.36 in
(1028 mb)
Calm - 10SM
05:45
Clear
30°F / -1°C 30°F / -1°C 100% 30.33 in
(1027 mb)
Calm - 10SM
04:45
Clear
28°F / -2°C 28°F / -2°C 100% 30.33 in
(1027 mb)
Calm - 10SM
04:35
Clear
30°F / -1°C 28°F / -2°C 93% 30.33 in
(1027 mb)
Calm - 10SM
04:15
Clear
30°F / -1°C 30°F / -1°C 100% 30.33 in
(1027 mb)
Calm - 7SM
03:55
Clear
32°F / 0°C 32°F / 0°C 100% 30.33 in
(1027 mb)
Calm - 10SM
03:35
Clear
Fog And Mist
32°F / 0°C 32°F / 0°C 100% 30.33 in
(1027 mb)
Calm - 5SM
03:15
Clear
32°F / 0°C 32°F / 0°C 100% 30.3 in
(1026 mb)
Calm - 10SM
02:55
Clear
32°F / 0°C 32°F / 0°C 100% 30.33 in
(1027 mb)
Calm - 10SM
02:35
Clear
32°F / 0°C 32°F / 0°C 100% 30.33 in
(1027 mb)
WNW 3.5 mph
(WNW 6 kph)
- 10SM
02:15
Clear
32°F / 0°C 32°F / 0°C 100% 30.3 in
(1026 mb)
Calm - 10SM
01:55
Clear
32°F / 0°C 30°F / -1°C 93% 30.3 in
(1026 mb)
Calm - 10SM
01:35
Clear
32°F / 0°C 30°F / -1°C 93% 30.3 in
(1026 mb)
Calm - 10SM
01:15
Clear
32°F / 0°C 32°F / 0°C 100% 30.3 in
(1026 mb)
W 3.5 mph
(W 6 kph)
- 10SM
00:55
Clear
32°F / 0°C 32°F / 0°C 100% 30.3 in
(1026 mb)
W 3.5 mph
(W 6 kph)
- 10SM
00:35
Clear
32°F / 0°C 32°F / 0°C 100% 30.3 in
(1026 mb)
Calm - 10SM
00:15
Clear
30°F / -1°C 30°F / -1°C 100% 30.3 in
(1026 mb)
Calm - 10SM
Time Weather Temperature Dewpoint Humidity Pressure Winds Precip Visibility


Weather for websites

WeatherForYou.com, LLC is not responsible for any damages or problems caused by this service. Current weather conditions are obtained from the closest station including government and personal stations which may have varying degrees of accuracy. Weather forecasts are derived from the NOAA NDFD. Like all things, this site belongs to Jesus Christ... He just trusts me to maintain it. If you have any questions or comments email webmaster@weatherforyou.com

Copyright © 2014, WeatherForYou.com LLC. All rights reserved.